Location: Newark
(43.6583°N, 1.6617°E)
Time: 13:18:40
(UTC+00:00)

Tiros 1 - Pass Details

Date: 31 August 2019
Orbit: 630 x 664 km, 48.4° (Epoch: 22 October)

Event Time Altitude Azimuth Distance (km) Brightness Sun altitude
Exits shadow 03:20:11 11° 166° (SSE) 1,933 9.4 -19.8°
Drops below altitude 10° 03:20:22 11° 165° (SSE) 1,993 9.5 -19.8°
Sets 03:23:05 0° 152° (SSE) 2,939 10.5 -19.4°
